Track STARLINK-5101 now! 10-day predictions STARLINK-5101 is classified as:
1 54822U 22177C 24325.96178852 .00000289 00000-0 36431-4 0 9992 2 54822 43.0018 187.4985 0001410 276.7576 83.3105 15.02540870104712